| time (UTC) | temp F | wind direction | speed knots | gust knots | rain 1hr in | rain 24hr in | rain mn in | humidity % | barometer mb |
| 20260507030059 | 50 | 360 | 3.5 | 12.2 | 0.07 | 0.23 | 0.23 | 94 | 1010.6 |
| 20260507024603 | 51 | 360 | 1.7 | 11.3 | 0.04 | 0.19 | 0.19 | 94 | 1010.6 |
| 20260507023051 | 53 | 360 | 6.1 | 13.9 | 0.06 | 0.18 | 0.18 | 94 | 1010.1 |
| 20260507021547 | 54 | 346 | 2.6 | 12.2 | 0.08 | 0.16 | 0.16 | 95 | 1010.0 |
| 20260507020045 | 55 | 30 | 0.0 | 3.5 | 0.08 | 0.16 | 0.16 | 95 | 1009.8 |
| 20260507014550 | 56 | 13 | 1.7 | 11.3 | 0.07 | 0.15 | 0.15 | 95 | 1009.5 |
| 20260507013041 | 58 | 313 | 0.9 | 6.1 | 0.04 | 0.12 | 0.12 | 96 | 1009.3 |
| 20260507011541 | 58 | 242 | 2.6 | 6.1 | 0.00 | 0.08 | 0.08 | 96 | 1009.1 |
| 20260507010039 | 57 | 205 | 2.6 | 6.1 | 0.00 | 0.08 | 0.08 | 96 | 1009.1 |
| 20260507004540 | 57 | 198 | 3.5 | 7.0 | 0.00 | 0.08 | 0.08 | 96 | 1008.9 |
| 20260507003035 | 57 | 208 | 3.5 | 7.8 | 0.00 | 0.08 | 0.08 | 95 | 1008.8 |
| 20260507001546 | 57 | 226 | 0.0 | 0.0 | 0.00 | 0.08 | 0.08 | 95 | 1008.7 |
| 20260507000036 | 58 | 207 | 0.0 | 0.0 | 0.00 | 0.08 | 0.08 | 95 | 1008.7 |
| 20260506234534 | 58 | 176 | 0.0 | 0.0 | 0.00 | 0.08 | 0.08 | 95 | 1008.4 |
| 20260506233034 | 58 | 213 | 0.0 | 0.0 | 0.00 | 0.08 | 0.08 | 95 | 1008.4 |
| 20260506231531 | 58 | 203 | 0.0 | 0.0 | 0.00 | 0.08 | 0.08 | 95 | 1008.6 |
| 20260506230030 | 58 | 223 | 0.0 | 0.0 | 0.00 | 0.08 | 0.08 | 95 | 1008.5 |
| 20260506224530 | 58 | 252 | 0.0 | 0.0 | 0.00 | 0.08 | 0.08 | 95 | 1008.6 |
| 20260506223027 | 58 | 251 | 0.0 | 0.0 | 0.00 | 0.08 | 0.08 | 95 | 1008.7 |
| 20260506221526 | 58 | 182 | 0.0 | 0.0 | 0.00 | 0.08 | 0.08 | 95 | 1008.7 |
| 20260506220036 | 58 | 226 | 0.0 | 0.0 | 0.00 | 0.08 | 0.08 | 94 | 1008.8 |
| 20260506214527 | 58 | 199 | 0.0 | 0.0 | 0.01 | 0.08 | 0.08 | 94 | 1008.8 |
| 20260506213029 | 59 | 196 | 0.0 | 0.0 | 0.01 | 0.08 | 0.08 | 94 | 1008.7 |
| 20260506211522 | 59 | 192 | 0.0 | 0.0 | 0.02 | 0.08 | 0.08 | 94 | 1008.9 |
| 20260506210023 | 59 | 197 | 0.0 | 0.0 | 0.02 | 0.08 | 0.08 | 94 | 1008.9 |
| 20260506204520 | 59 | 193 | 0.0 | 0.0 | 0.02 | 0.07 | 0.07 | 93 | 1009.0 |
| 20260506203021 | 60 | 196 | 0.0 | 0.0 | 0.02 | 0.07 | 0.07 | 93 | 1009.0 |
| 20260506201517 | 60 | 209 | 0.0 | 0.0 | 0.01 | 0.06 | 0.06 | 93 | 1009.3 |
| 20260506200020 | 60 | 202 | 0.0 | 0.0 | 0.01 | 0.06 | 0.06 | 92 | 1009.3 |
| 20260506194515 | 60 | 213 | 0.0 | 0.0 | 0.01 | 0.05 | 0.05 | 91 | 1009.5 |
| 20260506193014 | 60 | 250 | 0.0 | 0.0 | 0.01 | 0.05 | 0.05 | 91 | 1009.8 |
| 20260506191514 | 60 | 213 | 0.0 | 0.0 | 0.01 | 0.05 | 0.05 | 91 | 1009.3 |
| 20260506190020 | 60 | 182 | 0.0 | 0.0 | 0.02 | 0.05 | 0.05 | 91 | 1009.4 |
| 20260506184516 | 60 | 183 | 0.0 | 0.0 | 0.03 | 0.04 | 0.04 | 91 | 1010.0 |
| 20260506183007 | 60 | 217 | 0.0 | 0.0 | 0.04 | 0.04 | 0.04 | 91 | 1010.2 |
| 20260506181506 | 60 | 303 | 0.0 | 0.0 | 0.03 | 0.03 | 0.03 | 90 | 1010.5 |
| 20260506180008 | 61 | 240 | 0.0 | 0.0 | 0.02 | 0.02 | 0.02 | 87 | 1010.7 |
| 20260506174505 | 62 | 269 | 0.0 | 0.0 | 0.01 | 0.01 | 0.01 | 84 | 1010.8 |
| 20260506173003 | 64 | 246 | 4.3 | 13.9 | 0.00 | 0.00 | 0.00 | 78 | 1010.8 |
| 20260506171502 | 66 | 221 | 0.0 | 0.0 | 0.00 | 0.00 | 0.00 | 71 | 1010.6 |
| 20260506170001 | 67 | 208 | 3.5 | 13.0 | 0.00 | 0.00 | 0.00 | 69 | 1010.3 |
| 20260506164601 | 67 | 257 | 6.1 | 15.6 | 0.00 | 0.00 | 0.00 | 69 | 1010.4 |
| 20260506163104 | 67 | 212 | 0.0 | 0.0 | 0.00 | 0.00 | 0.00 | 73 | 1010.7 |
| 20260506161558 | 67 | 207 | 0.0 | 0.0 | 0.00 | 0.00 | 0.00 | 72 | 1010.8 |
| 20260506160054 | 67 | 200 | 0.0 | 0.0 | 0.00 | 0.00 | 0.00 | 73 | 1011.2 |
| 20260506154551 | 66 | 203 | 0.0 | 0.0 | 0.00 | 0.00 | 0.00 | 73 | 1011.7 |
| 20260506153049 | 66 | 211 | 0.0 | 0.0 | 0.00 | 0.00 | 0.00 | 73 | 1011.7 |
| 20260506151549 | 66 | 184 | 0.0 | 0.0 | 0.00 | 0.00 | 0.00 | 73 | 1011.9 |
| 20260506150051 | 66 | 204 | 0.0 | 0.0 | 0.00 | 0.00 | 0.00 | 74 | 1012.0 |
| 20260506144600 | 65 | 205 | 0.0 | 11.3 | 0.00 | 0.00 | 0.00 | 75 | 1012.0 |
| 20260506143046 | 65 | 173 | 7.8 | 13.0 | 0.00 | 0.00 | 0.00 | 76 | 1011.9 |
| 20260506141543 | 64 | 194 | 6.1 | 13.0 | 0.00 | 0.00 | 0.00 | 77 | 1011.9 |
| 20260506140041 | 63 | 163 | 0.0 | 10.4 | 0.00 | 0.00 | 0.00 | 80 | 1011.8 |
| 20260506134539 | 62 | 164 | 5.2 | 9.6 | 0.00 | 0.00 | 0.00 | 80 | 1011.9 |
| 20260506133042 | 62 | 202 | 3.5 | 7.8 | 0.00 | 0.00 | 0.00 | 81 | 1012.2 |
| 20260506131537 | 61 | 211 | 2.6 | 9.6 | 0.00 | 0.00 | 0.00 | 81 | 1012.2 |
| 20260506130038 | 60 | 191 | 4.3 | 9.6 | 0.00 | 0.00 | 0.00 | 82 | 1012.3 |
| 20260506124539 | 60 | 212 | 3.5 | 10.4 | 0.00 | 0.00 | 0.00 | 82 | 1012.4 |
| 20260506123036 | 59 | 222 | 5.2 | 12.2 | 0.00 | 0.00 | 0.00 | 83 | 1012.1 |
| 20260506121534 | 59 | 198 | 5.2 | 8.7 | 0.00 | 0.00 | 0.00 | 83 | 1012.2 |
| 20260506120034 | 59 | 240 | 5.2 | 10.4 | 0.00 | 0.00 | 0.00 | 84 | 1012.4 |
| 20260506114533 | 58 | 201 | 4.3 | 10.4 | 0.00 | 0.00 | 0.00 | 84 | 1012.4 |
| 20260506113031 | 58 | 198 | 6.1 | 11.3 | 0.00 | 0.00 | 0.00 | 84 | 1012.6 |
| 20260506111529 | 57 | 281 | 5.2 | 10.4 | 0.00 | 0.00 | 0.00 | 84 | 1012.7 |
| 20260506110029 | 57 | 191 | 4.3 | 9.6 | 0.00 | 0.00 | 0.00 | 84 | 1012.7 |
| 20260506104529 | 57 | 205 | 4.3 | 7.8 | 0.00 | 0.00 | 0.00 | 85 | 1012.8 |
| 20260506103025 | 56 | 199 | 3.5 | 7.8 | 0.00 | 0.00 | 0.00 | 84 | 1012.8 |
| 20260506101524 | 56 | 197 | 3.5 | 7.8 | 0.00 | 0.00 | 0.00 | 84 | 1012.5 |
| 20260506100024 | 56 | 214 | 3.5 | 9.6 | 0.00 | 0.00 | 0.00 | 83 | 1012.5 |
| 20260506094522 | 56 | 195 | 5.2 | 9.6 | 0.00 | 0.00 | 0.00 | 83 | 1012.6 |
| 20260506093025 | 56 | 194 | 3.5 | 8.7 | 0.00 | 0.00 | 0.00 | 82 | 1012.4 |
| 20260506091521 | 56 | 177 | 4.3 | 7.0 | 0.00 | 0.00 | 0.00 | 81 | 1012.3 |
| 20260506090022 | 57 | 214 | 1.7 | 6.1 | 0.00 | 0.00 | 0.00 | 80 | 1012.5 |
| 20260506084531 | 57 | 213 | 1.7 | 7.0 | 0.00 | 0.00 | 0.00 | 79 | 1012.5 |
| 20260506083014 | 58 | 231 | 1.7 | 2.6 | 0.00 | 0.00 | 0.00 | 77 | 1012.5 |
| 20260506081512 | 58 | 228 | 0.9 | 3.5 | 0.00 | 0.00 | 0.00 | 76 | 1012.5 |
| 20260506073001 | 60 | 232 | 0.9 | 3.5 | 0.00 | 0.00 | 0.00 | 72 | 1012.6 |
| 20260506071601 | 61 | 279 | 1.7 | 4.3 | 0.00 | 0.00 | 0.00 | 71 | 1012.6 |
| 20260506061601 | 61 | 242 | 0.9 | 5.2 | 0.00 | 0.00 | 0.00 | 70 | 1012.3 |
| 20260506044551 | 62 | 200 | 2.6 | 6.1 | 0.00 | 0.00 | 0.00 | 69 | 1012.8 |
| 20260506043043 | 62 | 232 | 2.6 | 6.1 | 0.00 | 0.00 | 0.00 | 68 | 1012.8 |
| 20260506041549 | 63 | 148 | 3.5 | 8.7 | 0.00 | 0.00 | 0.00 | 66 | 1012.5 |
| 20260506040040 | 64 | 194 | 4.3 | 8.7 | 0.00 | 0.00 | 0.00 | 65 | 1012.7 |
| 20260506034536 | 65 | 233 | 5.2 | 9.6 | 0.00 | 0.00 | 0.00 | 62 | 1012.7 |
| 20260506033035 | 66 | 231 | 2.6 | 12.2 | 0.00 | 0.00 | 0.00 | 62 | 1012.5 |
| 20260506031535 | 66 | 223 | 4.3 | 11.3 | 0.00 | 0.00 | 0.00 | 62 | 1012.4 |